Regional Weather Roundup
Issued by NWS Raleigh/Durham, NC

Home | Current Version | Previous Version | Text Only | Print | Product List | Glossary On
Versions: 1 2 3 4 5 6 7 8 9 10 11 12 13 14 15 16 17 18 19 20 21 22 23 24 25 26 27 28 29 30 31 32 33 34 35 36 37 38 39 40 41 42 43 44 45 46 47 48 49 50
000
ASUS42 KRAH 070810
RWRRAH
NORTH CAROLINA WEATHER ROUNDUP
NATIONAL WEATHER SERVICE RALEIGH NC
400 AM EDT THU MAY 07 2015

NOTE: "FAIR" INDICATES FEW OR NO CLOUDS BELOW 12,000 FEET WITH NO
SIGNIFICANT WEATHER AND/OR OBSTRUCTIONS TO VISIBILITY.

NCZ001-053-055-056-065-067-070900-
WESTERN NORTH CAROLINA

CITY           SKY/WX    TMP DP  RH WIND       PRES   REMARKS
ASHEVILLE      PTCLDY    55  50  83 CALM      30.18S
JEFFERSON      CLOUDY    55  54  95 CALM      30.21S
MORGANTON      CLEAR     58  57  96 CALM      30.19S
HICKORY        CLEAR     60  55  83 NE5       30.13F
RUTHERFORDTON  PTCLDY    56  55  97 CALM      30.14S
MOUNT AIRY       N/A     60  57  89 CALM      30.17F
BOONE          PTCLDY    48  48 100 CALM      30.22F FOG
$$

NCZ021-022-025-041-071-084-088-070900-
CENTRAL NORTH CAROLINA

CITY           SKY/WX    TMP DP  RH WIND       PRES   REMARKS
CHARLOTTE      CLOUDY    58  51  78 NE3       30.12F
GREENSBORO     PTCLDY    61  57  87 N3        30.14S
WINSTON-SALEM  PTCLDY    61  55  81 CALM      30.15F
RALEIGH-DURHAM CLOUDY    60  55  83 CALM      30.14S
FORT BRAGG     CLOUDY    61  56  84 N2        30.10F
FAYETTEVILLE   CLOUDY    59  55  87 N7        30.09F
BURLINGTON     MOCLDY    59  55  87 CALM      30.14S
LAURINBURG     CLOUDY    60  55  83 NE7       30.10F
$$

NCZ011-015-027-028-043-044-047-080-103-070900-
NORTHEASTERN NORTH CAROLINA

CITY           SKY/WX    TMP DP  RH WIND       PRES   REMARKS
ROCKY MT-WILSO CLOUDY    58  56  93 CALM      30.13F
GREENVILLE     CLOUDY    61  59  94 E3        30.13F
WASHINGTON     CLOUDY    59  57  92 NE5       30.13S
ELIZABETH CITY CLOUDY    63  60  90 NE9       30.15S
MANTEO         MOCLDY    64  61  89 E7        30.13S
CAPE HATTERAS  MOCLDY    65  58  78 NE7       30.09F
$$

NCZ078-087-090-091-093-098-101-070900-
SOUTHEASTERN NORTH CAROLINA

CITY           SKY/WX    TMP DP  RH WIND       PRES   REMARKS
LUMBERTON      CLOUDY    62  57  83 N7        30.08F
GOLDSBORO      CLOUDY    62  57  85 NE8       30.09F
KINSTON        CLOUDY    62  58  88 NE5       30.12S
KENANSVILLE    CLOUDY    61  57  88 CALM      30.10S
NEW BERN       CLOUDY    63  60  90 NE8       30.10F
CHERRY POINT   CLOUDY    65  61  87 NE10      30.09F
BEAUFORT       CLOUDY    66  62  87 NE9       30.06F
JACKSONVILLE   CLOUDY    65  59  81 NE12      30.06F
WILMINGTON     CLOUDY    65  59  81 NE13      30.05F
$$




USA.gov is the U.S. government's official web portal to all federal, state and local government web resources and services.